This demonstration page uses our WeatherBlox Daily Observations layout. Learn more.

Left ArrowRight Arrow

Hourly Observations for July 9, 2021

Temp ( °F °C ) Dew Point ( °F °C ) Humidity (%) Winds ( mph kmh ) Pressure ( in mb ) Visibility ( mi km ) Precip ( " mm )
12:53 am 00:53 Clear 78 25.6 60 15.6 54 54 ESE 9 15 29.89 1012 10 16 0.00 0.00
1:53 am 01:53 Clear 77 25 61 16.1 58 58 ESE 10 17 29.88 1012 10 16 0.00 0.00
2:53 am 02:53 Clear 75 23.9 62 16.7 64 64 ESE 7 11 29.89 1012 10 16 0.00 0.00
3:53 am 03:53 Clear 74 23.3 62 16.7 67 67 ESE 8 13 29.88 1012 10 16 0.00 0.00
4:53 am 04:53 Clear 73 22.8 62 16.7 69 69 E 6 9 29.88 1012 10 16 0.00 0.00
5:53 am 05:53 Clear 71 21.7 62 16.7 73 73 E 6 9 29.88 1012 10 16 0.00 0.00
6:53 am 06:53 Clear 70 21.1 62 16.7 76 76 E 3 6 29.90 1013 10 16 0.00 0.00
7:53 am 07:53 Sunny 72 22.2 63 17.2 73 73 ESE 8 13 29.91 1013 10 16 0.00 0.00
8:53 am 08:53 Sunny 75 23.9 64 17.8 69 69 SE 8 13 29.93 1013 10 16 0.00 0.00
9:53 am 09:53 Sunny 79 26.1 65 18.3 62 62 S 5 7 29.93 1014 10 16 0.00 0.00
10:53 am 10:53 Sunny 83 28.3 64 17.8 53 53 VRB 5 7 29.93 1014 10 16 0.00 0.00
11:53 am 11:53 Sunny 85 29.4 63 17.2 48 48 VRB 3 6 29.93 1014 10 16 0.00 0.00
12:53 pm 12:53 Mostly Sunny 88 31.1 62 16.7 42 42 VRB 7 11 29.92 1013 10 16 0.00 0.00
1:53 pm 13:53 Mostly Sunny 90 32.2 62 16.7 39 39 ENE 12 19 29.91 1013 10 16 0.00 0.00
2:53 pm 14:53 Mostly Sunny 93 33.9 59 15 32 32 E 10 17 29.89 1012 10 16 0.00 0.00
3:53 pm 15:53 Sunny 94 34.4 57 13.9 29 29 E 14 22 29.88 1012 10 16 0.00 0.00
4:53 pm 16:53 Sunny 94 34.4 57 13.9 29 29 undefined N/A 29.85 1011 10 16 0.00 0.00
5:53 pm 17:53 Sunny 92 33.3 57 13.9 31 31 VRB 5 7 29.85 1011 10 16 0.00 0.00
6:53 pm 18:53 Sunny 93 33.9 59 15 32 32 ESE 14 22 29.85 1011 10 16 0.00 0.00
7:53 pm 19:53 Sunny 91 32.8 58 14.4 33 33 ESE 13 20 29.85 1011 10 16 0.00 0.00
8:53 pm 20:53 Sunny 87 30.6 59 15 39 39 E 12 19 29.87 1011 10 16 0.00 0.00
9:53 pm 21:53 Clear 84 28.9 61 16.1 46 46 E 12 19 29.87 1012 10 16 0.00 0.00
10:53 pm 22:53 Clear 81 27.2 62 16.7 53 53 E 9 15 29.90 1012 10 16 0.00 0.00
11:53 pm 23:53 Clear 79 26.1 64 17.8 60 60 E 10 17 29.91 1013 10 16 0.00 0.00

Powered by AerisWeather